Lid_Strength_Index
13 11 10 10 11 10 12 12 13 12 13 12 10 11 9 8 6 7 5 5 4 4 4 4 3 3 3 3 2 2 2 2 2 2 1 1 1 1 1 1 1 2 2 2
14 11 10 11 9 10 10 10 11 12 13 10 9 8 8 7 6 6 6 5 5 4 4 4 3 3 3 3 3 2 2 3 2 2 2 2 2 2 1 1 1 3 3 3
18 12 11 12 11 10 10 10 10 12 11 10 10 8 8 8 8 7 6 5 5 4 4 3 3 3 3 3 2 2 3 2 2 2 2 2 2 2 2 2 2 2 3 3
17 14 16 12 8 8 10 9 9 9 9 9 8 7 7 6 7 6 6 5 4 4 4 3 3 3 2 2 2 3 3 3 2 2 2 2 2 2 2 2 2 2 3 3
16 16 13 10 9 10 11 11 8 9 8 8 8 8 8 6 7 6 6 5 6 4 3 3 3 2 3 3 3 3 3 3 2 2 2 2 2 2 2 2 2 2 3 3
13 16 17 12 9 7 8 15 8 8 8 8 7 10 10 6 6 6 6 6 5 5 4 3 3 2 3 3 3 3 3 3 2 2 2 2 2 2 2 2 2 3 3 3
13 15 13 10 8 7 13 12 8 8 8 8 9 8 7 6 6 5 5 4 5 6 5 3 3 3 3 3 3 3 2 2 2 2 2 2 2 2 2 2 2 3 4 5
14 16 18 8 8 11 10 9 8 8 8 8 8 7 7 6 6 5 5 5 4 6 4 3 3 3 3 4 2 2 2 2 2 2 2 2 2 2 2 3 3 3 4 5
12 14 9 8 9 7 7 8 8 8 7 7 7 7 6 6 6 5 5 5 4 4 4 4 3 3 3 3 2 2 3 3 3 2 2 2 2 3 4 4 4 5 5 6
11 9 9 8 7 7 6 7 6 6 6 6 7 7 8 7 6 6 7 8 7 6 4 5 4 3 3 3 2 3 3 3 3 3 3 3 4 3 4 4 4 5 4 4
11 9 9 8 7 7 6 6 6 6 6 6 7 7 7 8 8 8 8 7 7 8 9 10 3 3 3 3 2 3 3 3 3 3 3 7 11 7 4 5 4 4 4 3
13 9 9 8 6 6 6 6 6 7 7 6 6 7 7 8 8 8 7 7 8 8 8 6 7 5 3 2 2 3 3 3 4 7 8 9 9 10 14 14 13 11 9 4
9 7 7 6 6 6 7 6 6 7 6 6 5 6 7 7 7 6 5 4 4 4 5 5 3 4 3 3 3 3 3 4 6 6 6 5 5 7 10 13 14 15 14 11
6 6 7 6 7 6 6 5 5 5 4 4 5 5 6 6 5 5 5 4 4 4 3 3 4 3 3 3 3 4 4 8 5 5 5 4 4 6 7 6 7 9 14 13
6 5 6 5 5 6 5 6 6 6 5 5 4 4 4 5 5 5 4 3 3 3 3 3 4 4 2 3 3 3 3 4 4 4 4 5 5 6 6 6 6 10 11 12
6 6 6 6 6 6 6 7 7 6 6 5 5 6 5 4 4 4 3 3 4 4 4 4 3 3 3 2 3 3 3 5 3 3 4 4 5 5 5 6 8 8 7 8
7 8 7 7 7 6 6 6 6 6 6 5 5 4 5 5 5 4 4 4 4 4 3 3 4 3 4 4 4 5 5 5 5 3 3 3 3 3 3 5 6 6 6 8
5 6 5 5 6 6 5 5 5 5 5 5 4 4 4 5 5 5 5 4 6 5 4 3 3 3 2 2 2 2 3 3 3 3 3 3 3 3 3 4 5 6 6 9
5 5 5 6 6 5 5 5 4 4 4 4 4 4 4 4 4 4 3 4 4 5 4 2 2 3 4 2 2 2 2 3 3 3 3 5 4 4 3 4 5 5 6 7
5 4 4 4 4 5 4 4 4 4 3 3 4 4 5 5 4 4 4 4 4 3 3 2 2 2 3 3 3 3 3 3 4 4 4 4 3 4 4 6 4 4 5 6
5 4 4 4 4 4 3 4 5 5 4 5 4 4 5 5 4 5 6 5 5 5 6 5 4 4 3 3 3 3 3 3 3 3 3 4 4 4 4 5 5 5 5 5
4 4 4 4 4 4 4 4 4 4 5 6 6 4 5 6 6 6 6 6 6 6 7 7 7 5 4 3 4 3 3 3 3 3 4 4 4 5 5 4 3 3 3 4
5 5 6 6 6 6 5 5 5 6 6 6 6 7 6 4 5 7 7 5 5 5 6 6 5 5 4 4 4 3 2 3 3 4 4 4 5 6 6 5 5 5 4 4
6 8 7 7 7 6 7 7 6 6 6 6 6 6 6 5 5 4 5 5 5 5 5 4 4 4 4 3 4 4 4 4 4 3 3 6 5 6 6 6 6 6 5 4
7 8 8 7 8 8 8 7 7 7 8 6 5 6 6 6 7 7 6 6 5 4 4 4 4 4 4 4 3 4 4 4 5 5 5 5 6 6 7 8 7 7 7 7
8 8 8 8 8 8 8 7 7 6 6 6 6 5 6 6 6 6 6 6 6 5 4 4 4 4 4 4 4 4 4 4 3 3 4 4 4 3 3 4 4 5 6 6
7 8 8 8 7 7 8 7 7 8 7 7 8 7 6 6 6 7 7 7 6 6 7 6 6 5 5 5 5 4 4 5 6 4 5 5 5 5 5 5 5 4 5 6